Location: Unspecified
(47.1700°N, 0.0000°E)
Time: 14:17:56
(UTC+00:00)

Tiangong 2 - Visible Passes

Search period start: 19 May 2019 00:00
Search period end: 29 May 2019 00:00
Orbit: 378 x 387 km, 42.8° (Epoch: 19 May)

Date Brightness Start Highest point End Pass type
(mag) Time Alt. Az. Time Alt. Az. Time Alt. Az.
19 May 3.2 20:23:06 10° SSE 20:23:50 11° SSE 20:24:17 10° SE visible
20 May 2.3 20:57:34 10° SW 21:00:04 22° SSE 21:00:26 21° SSE visible
21 May 1.9 21:33:35 10° WSW 21:36:03 32° S 21:36:03 32° S visible
22 May 2.1 20:33:49 10° SW 20:36:33 28° SSE 20:39:06 11° ESE visible
22 May 2.9 22:09:59 10° WSW 22:11:18 21° WSW 22:11:18 21° WSW visible
23 May 1.7 21:10:03 10° WSW 21:12:57 36° S 21:14:08 26° SE visible
24 May 2.1 21:46:33 10° WSW 21:49:00 30° SSW 21:49:00 30° SSW visible
25 May 1.8 20:46:32 10° WSW 20:49:27 35° S 20:51:37 15° ESE visible
25 May 3.6 22:23:23 10° WSW 22:23:47 12° WSW 22:23:47 12° WSW visible
26 May 2.3 21:23:09 10° WSW 21:25:49 25° SSW 21:26:19 24° S visible
27 May 2.1 20:23:02 10° WSW 20:25:53 31° S 20:28:42 10° SE visible
27 May 3.5 22:00:22 10° WSW 22:01:00 12° SW 22:01:00 12° SW visible
28 May 2.8 20:59:49 10° WSW 21:02:10 19° SSW 21:03:30 15° SSE visible
